NOAA 16 DEB, 41403

Orbit data source: Space-Track

NOAA 16 DEB, 41403 is space debris in SSO originally from a launch on Thu, 21 Sep 2000 UTC launched from the Air Force Western Test Range (AFWTR). Debris objects in space refer to the collection of defunct objects orbiting the Earth. Examples of debris include non-operational satellites, rocket bodies, and fragments generated from explosions, collisions, or faulty payload assembly.

Loading next visibility...
Identifier
41403, 2000-055KG
Orbit
SSO
Country
Flag of USUS
Related business
Manufacturer
Unknown
Mission
Spacecraft
Bus & Motor
Unknown
Mass
Unknown
Launch date (UTC)
2000-09-21 (26 years ago)
Launch vehicle
Unknown
Launch site
Air Force Western Test Range (AFWTR)
Object type
Payload
Rocket body
Debris
Shape & HBR
Unknown shape, 0.1 m
Radar Cross Section
Medium (>0.1 m² and <1 m²)

Expand to show TLE details & history
Last TLE update: 1 week ago

TLE from 1 week ago
0 NOAA 16 DEB
1 41403U 00055KG  26152.71909194  .00007937  00000-0  19324-2 0  9995
2 41403  98.9264 326.0713 0019218 165.5621 194.6126 14.52921986536797
Epoch: 2026-06-01T17:15Z
TLE epoch observation values (Epoch: 2026-06-01T17:15:29.543Z)
Latitude
-0.00002°
Longitude
176.99582°
Altitude
732.27 km
Speed
7.482 km/s
True Right ascension
21h 44m 17s
True Declination
0° 00' 00"
Sunlit
Object was in daylight at epoch
Visualization orbit readout
Latitude
Unknown
Longitude
Unknown
Altitude
Unknown
Speed
Unknown
Apparent Right ascension
Unknown
Apparent Declination
Unknown
Sunlit
N/A
Visualization observer readout
Local Sidereal Time
19:25:02
Azimuth
Unknown
Elevation
Unknown
Doppler factor
Unknown
Orbital elements
Apogee altitude
726.875 km
Perigee altitude
699.618 km
Semi-major axis
7,091.383 km
Eccentricity
0.00192
Inclination
98.9264°
RAAN
326.0713°
Arg. of periapsis
165.5621°
True anomaly
194.55717°
Mean anomaly
194.6126°
Eccentric anomaly
194.58487°
Mean motion
3.63452 °/min
Orbital period
99.05 mins
BSTAR
0.0019324
Loading maneuver chart data...
Computing Atmospheric mass density...
Loading historical data...
Loading historical data...
Loading historical data...
Loading historical data...
Loading historical data...
Loading historical data...
Loading historical data...

Documentation

Showing up to 5 results
|